NOK121 VTCC-VTBD

Flight info

Callsign NOK121
Flight time 0h 52m
Altitude 31000
Route PANTA2S PANTA Y7 BLAFF NAKON3A
Aircraft B738/M-SDE2E3FGHIRWXY/LB1

Departure

Time 2026-04-17 10:01
Airport Chiang Mai International Airport (VTCC)

Arrival

Time 2026-04-17 10:54
Airport Don Mueang International Airport (VTBD)
Time Latitude Longitude Altitude Speed Heading
2026-04-17 09:32 18.76778 98.96734 1031 ft 0 kts 90°
2026-04-17 09:53 18.76777 98.96712 1031 ft 4 kts 82°
2026-04-17 09:53 18.76771 98.96685 1031 ft 4 kts 65°
2026-04-17 09:53 18.76757 98.96661 1031 ft 4 kts 43°
2026-04-17 09:54 18.76735 98.96647 1031 ft 4 kts
2026-04-17 09:54 18.76729 98.96646 1031 ft 0 kts
2026-04-17 09:56 18.76733 98.96646 1031 ft 2 kts
2026-04-17 09:56 18.76774 98.96647 1031 ft 10 kts
2026-04-17 09:56 18.76867 98.96647 1031 ft 16 kts
2026-04-17 09:57 18.76980 98.96646 1031 ft 16 kts 357°
2026-04-17 09:57 18.77072 98.96604 1031 ft 14 kts 327°
2026-04-17 09:57 18.77138 98.96533 1031 ft 13 kts 311°
2026-04-17 09:57 18.77225 98.96517 1031 ft 13 kts
2026-04-17 09:58 18.77312 98.96518 1031 ft 13 kts
2026-04-17 09:58 18.77400 98.96518 1031 ft 13 kts
2026-04-17 09:58 18.77503 98.96519 1031 ft 17 kts
2026-04-17 09:58 18.77641 98.96519 1031 ft 22 kts
2026-04-17 09:59 18.77815 98.96519 1031 ft 27 kts
2026-04-17 09:59 18.78001 98.96520 1031 ft 26 kts 359°
2026-04-17 09:59 18.78170 98.96484 1031 ft 25 kts 328°
2026-04-17 09:59 18.78312 98.96393 1031 ft 23 kts 328°
2026-04-17 10:00 18.78327 98.96292 1031 ft 18 kts 189°
2026-04-17 10:00 18.78159 98.96291 1031 ft 46 kts 180°
2026-04-17 10:00 18.77600 98.96290 1031 ft 114 kts 180°
2026-04-17 10:00 18.76607 98.96287 1050 ft 168 kts 182°
2026-04-17 10:01 18.75351 98.96287 1530 ft 185 kts 181°
2026-04-17 10:01 18.74006 98.96293 2105 ft 198 kts 183°
2026-04-17 10:01 18.72636 98.96288 2911 ft 199 kts 183°
2026-04-17 10:01 18.71167 98.96279 3118 ft 221 kts 183°
2026-04-17 10:02 18.69575 98.96268 3245 ft 241 kts 183°
2026-04-17 10:02 18.67840 98.96262 3496 ft 253 kts 182°
2026-04-17 10:02 18.66045 98.96258 3823 ft 264 kts 182°
2026-04-17 10:02 18.64794 98.96254 3981 ft 275 kts 183°
2026-04-17 10:03 18.62859 98.96250 4437 ft 281 kts 182°
2026-04-17 10:03 18.60264 98.96246 5274 ft 280 kts 182°
2026-04-17 10:03 18.58325 98.96237 5943 ft 279 kts 183°
2026-04-17 10:03 18.57026 98.96201 6311 ft 282 kts 181°
2026-04-17 10:04 18.55061 98.96206 6923 ft 282 kts 181°
2026-04-17 10:04 18.53093 98.96214 7579 ft 283 kts 181°
2026-04-17 10:04 18.51132 98.96424 8190 ft 287 kts 162°
2026-04-17 10:04 18.49377 98.97437 8920 ft 289 kts 141°
2026-04-17 10:05 18.48002 98.98965 9565 ft 294 kts 131°
2026-04-17 10:05 18.46715 99.00669 10183 ft 297 kts 130°
2026-04-17 10:05 18.45408 99.02445 10414 ft 317 kts 130°
2026-04-17 10:05 18.44028 99.04318 10573 ft 336 kts 129°
2026-04-17 10:06 18.42554 99.06310 10867 ft 349 kts 130°
2026-04-17 10:06 18.41037 99.08344 11368 ft 354 kts 129°
2026-04-17 10:06 18.39499 99.10395 11945 ft 360 kts 129°
2026-04-17 10:06 18.37936 99.12473 12558 ft 362 kts 129°
2026-04-17 10:07 18.36362 99.14562 13186 ft 365 kts 129°
2026-04-17 10:07 18.34770 99.16671 13740 ft 371 kts 129°
2026-04-17 10:07 18.33173 99.18784 14260 ft 375 kts 129°
2026-04-17 10:07 18.31534 99.20953 14794 ft 379 kts 129°
2026-04-17 10:08 18.29886 99.23132 15387 ft 382 kts 129°
2026-04-17 10:08 18.28220 99.25335 15793 ft 389 kts 129°
2026-04-17 10:08 18.26514 99.27588 15782 ft 393 kts 129°
2026-04-17 10:08 18.24840 99.29798 15782 ft 389 kts 129°
2026-04-17 10:09 18.22946 99.31814 15776 ft 383 kts 146°
2026-04-17 10:09 18.20553 99.33051 15950 ft 387 kts 163°
2026-04-17 10:09 18.17998 99.33897 16497 ft 389 kts 164°
2026-04-17 10:09 18.15377 99.34748 17170 ft 389 kts 164°
2026-04-17 10:10 18.12815 99.35579 17726 ft 392 kts 164°
2026-04-17 10:10 18.10193 99.36437 18208 ft 396 kts 164°
2026-04-17 10:10 18.07549 99.37309 18651 ft 400 kts 164°
2026-04-17 10:11 18.02202 99.39088 19595 ft 404 kts 164°
2026-04-17 10:11 17.99542 99.39976 20051 ft 407 kts 164°
2026-04-17 10:11 17.96840 99.40879 20511 ft 409 kts 164°
2026-04-17 10:11 17.94108 99.41791 20952 ft 412 kts 164°
2026-04-17 10:12 17.91358 99.42710 21386 ft 415 kts 164°
2026-04-17 10:12 17.88586 99.43635 21814 ft 418 kts 164°
2026-04-17 10:12 17.85801 99.44565 22259 ft 421 kts 164°
2026-04-17 10:12 17.83045 99.45484 22748 ft 421 kts 164°
2026-04-17 10:13 17.80242 99.46419 23160 ft 423 kts 164°
2026-04-17 10:13 17.77419 99.47360 23499 ft 427 kts 164°
2026-04-17 10:13 17.74567 99.48311 23831 ft 429 kts 164°
2026-04-17 10:13 17.71708 99.49263 24150 ft 432 kts 164°
2026-04-17 10:14 17.68859 99.50211 24471 ft 434 kts 164°
2026-04-17 10:14 17.65971 99.51172 24824 ft 436 kts 164°
2026-04-17 10:14 17.63059 99.52140 25143 ft 438 kts 164°
2026-04-17 10:14 17.60138 99.53114 25453 ft 441 kts 164°
2026-04-17 10:15 17.57232 99.54082 25748 ft 443 kts 164°
2026-04-17 10:15 17.54276 99.55065 26048 ft 446 kts 164°
2026-04-17 10:15 17.51312 99.56050 26353 ft 448 kts 164°
2026-04-17 10:15 17.48329 99.57040 26728 ft 448 kts 164°
2026-04-17 10:16 17.45360 99.58025 27160 ft 446 kts 164°
2026-04-17 10:16 17.42428 99.58998 27603 ft 445 kts 164°
2026-04-17 10:16 17.39478 99.59977 28020 ft 444 kts 164°
2026-04-17 10:16 17.36524 99.60956 28402 ft 444 kts 164°
2026-04-17 10:17 17.33571 99.61935 28820 ft 444 kts 164°
2026-04-17 10:17 17.30662 99.62898 29253 ft 443 kts 165°
2026-04-17 10:17 17.27719 99.63873 29701 ft 442 kts 165°
2026-04-17 10:17 17.24777 99.64847 30065 ft 442 kts 165°
2026-04-17 10:18 17.21842 99.65818 30458 ft 440 kts 165°
2026-04-17 10:18 17.18957 99.66772 30720 ft 440 kts 165°
2026-04-17 10:18 17.16027 99.67741 30701 ft 440 kts 165°
2026-04-17 10:19 17.10207 99.69664 30725 ft 437 kts 165°
2026-04-17 10:19 17.04401 99.71581 30745 ft 437 kts 165°
2026-04-17 10:20 16.98588 99.73498 30747 ft 438 kts 165°
2026-04-17 10:20 16.92811 99.75403 30752 ft 439 kts 165°
2026-04-17 10:21 16.86980 99.77323 30754 ft 439 kts 165°
2026-04-17 10:21 16.81174 99.79238 30750 ft 439 kts 165°
2026-04-17 10:22 16.75353 99.81166 30757 ft 438 kts 165°
2026-04-17 10:22 16.69542 99.83089 30755 ft 437 kts 165°
2026-04-17 10:23 16.63734 99.85008 30757 ft 437 kts 165°
2026-04-17 10:23 16.57952 99.86916 30757 ft 437 kts 165°
2026-04-17 10:24 16.52149 99.88829 30751 ft 437 kts 165°
2026-04-17 10:24 16.46376 99.90731 30747 ft 437 kts 165°
2026-04-17 10:25 16.40567 99.92643 30753 ft 437 kts 165°
2026-04-17 10:25 16.34791 99.94544 30754 ft 437 kts 165°
2026-04-17 10:26 16.28990 99.96460 30748 ft 437 kts 165°
2026-04-17 10:26 16.23184 99.98383 30751 ft 437 kts 165°
2026-04-17 10:27 16.17420 100.00289 30756 ft 437 kts 165°
2026-04-17 10:27 16.11612 100.02207 30760 ft 437 kts 165°
2026-04-17 10:28 16.05815 100.04119 30745 ft 436 kts 165°
2026-04-17 10:28 16.00065 100.06015 30757 ft 435 kts 165°
2026-04-17 10:29 15.94276 100.07922 30743 ft 435 kts 165°
2026-04-17 10:29 15.88507 100.09821 30744 ft 434 kts 165°
2026-04-17 10:30 15.82766 100.11710 30424 ft 438 kts 165°
2026-04-17 10:30 15.79857 100.12667 29964 ft 436 kts 165°
2026-04-17 10:30 15.76953 100.13622 29356 ft 436 kts 165°
2026-04-17 10:30 15.74088 100.14563 28719 ft 436 kts 165°
2026-04-17 10:31 15.71155 100.15527 28076 ft 436 kts 165°
2026-04-17 10:31 15.68259 100.16478 27490 ft 435 kts 164°
2026-04-17 10:31 15.65380 100.17424 27027 ft 431 kts 164°
2026-04-17 10:31 15.62528 100.18360 26552 ft 428 kts 164°
2026-04-17 10:32 15.59731 100.19279 26090 ft 425 kts 164°
2026-04-17 10:32 15.56916 100.20202 25625 ft 422 kts 163°
2026-04-17 10:32 15.54120 100.21119 25158 ft 420 kts 163°
2026-04-17 10:32 15.51337 100.22032 24682 ft 418 kts 163°
2026-04-17 10:33 15.48571 100.22938 24213 ft 416 kts 163°
2026-04-17 10:33 15.45816 100.23841 23751 ft 414 kts 163°
2026-04-17 10:33 15.43062 100.24743 23275 ft 413 kts 163°
2026-04-17 10:33 15.40362 100.25627 22755 ft 411 kts 163°
2026-04-17 10:34 15.37638 100.26518 22281 ft 407 kts 163°
2026-04-17 10:34 15.34942 100.27400 21817 ft 404 kts 163°
2026-04-17 10:34 15.32266 100.28276 21358 ft 401 kts 163°
2026-04-17 10:34 15.29611 100.29145 20921 ft 398 kts 162°
2026-04-17 10:35 15.27015 100.29997 20485 ft 395 kts 162°
2026-04-17 10:35 15.24420 100.30934 20045 ft 393 kts 160°
2026-04-17 10:35 15.21862 100.31927 19593 ft 391 kts 159°
2026-04-17 10:35 15.19324 100.32930 19144 ft 389 kts 159°
2026-04-17 10:36 15.16794 100.33928 18706 ft 388 kts 159°
2026-04-17 10:36 15.14274 100.34914 18266 ft 387 kts 159°
2026-04-17 10:36 15.11790 100.35879 17804 ft 385 kts 159°
2026-04-17 10:36 15.09281 100.36848 17340 ft 383 kts 159°
2026-04-17 10:37 15.06784 100.37810 16893 ft 380 kts 159°
2026-04-17 10:37 15.04311 100.38761 16463 ft 377 kts 159°
2026-04-17 10:37 15.01883 100.39693 16041 ft 374 kts 159°
2026-04-17 10:37 14.99449 100.40627 15627 ft 371 kts 159°
2026-04-17 10:38 14.97030 100.41555 15211 ft 369 kts 159°
2026-04-17 10:38 14.94629 100.42476 14791 ft 366 kts 159°
2026-04-17 10:38 14.92250 100.43388 14385 ft 364 kts 159°
2026-04-17 10:38 14.89877 100.44298 13972 ft 362 kts 159°
2026-04-17 10:39 14.87517 100.45203 13548 ft 360 kts 159°
2026-04-17 10:39 14.85177 100.46100 13101 ft 357 kts 160°
2026-04-17 10:39 14.82850 100.46991 12668 ft 355 kts 160°
2026-04-17 10:39 14.80574 100.47864 12257 ft 352 kts 160°
2026-04-17 10:40 14.78282 100.48741 11912 ft 347 kts 160°
2026-04-17 10:40 14.76047 100.49597 11760 ft 337 kts 160°
2026-04-17 10:40 14.73874 100.50429 11615 ft 327 kts 160°
2026-04-17 10:40 14.71771 100.51235 11496 ft 317 kts 160°
2026-04-17 10:41 14.69761 100.51983 11417 ft 307 kts 162°
2026-04-17 10:41 14.67722 100.52599 11189 ft 302 kts 165°
2026-04-17 10:41 14.65695 100.53160 10885 ft 301 kts 166°
2026-04-17 10:41 14.63678 100.53713 10593 ft 299 kts 166°
2026-04-17 10:42 14.61668 100.54274 10295 ft 298 kts 166°
2026-04-17 10:42 14.59688 100.54830 10145 ft 291 kts 166°
2026-04-17 10:42 14.57752 100.55378 9979 ft 286 kts 166°
2026-04-17 10:42 14.55836 100.55924 9696 ft 285 kts 166°
2026-04-17 10:43 14.53929 100.56469 9399 ft 284 kts 165°
2026-04-17 10:43 14.52045 100.57007 9114 ft 283 kts 165°
2026-04-17 10:43 14.50147 100.57548 8839 ft 282 kts 165°
2026-04-17 10:43 14.48259 100.58088 8576 ft 281 kts 165°
2026-04-17 10:44 14.46370 100.58626 8308 ft 281 kts 166°
2026-04-17 10:44 14.44491 100.59162 8043 ft 279 kts 166°
2026-04-17 10:44 14.42648 100.59689 7786 ft 277 kts 165°
2026-04-17 10:44 14.40788 100.60220 7535 ft 275 kts 166°
2026-04-17 10:45 14.38945 100.60746 7272 ft 274 kts 166°
2026-04-17 10:45 14.37111 100.61270 7017 ft 272 kts 165°
2026-04-17 10:45 14.35284 100.61791 6756 ft 271 kts 166°
2026-04-17 10:45 14.33494 100.62302 6520 ft 269 kts 165°
2026-04-17 10:46 14.31696 100.62814 6278 ft 267 kts 164°
2026-04-17 10:46 14.29897 100.63327 6003 ft 266 kts 164°
2026-04-17 10:46 14.28112 100.63835 5742 ft 265 kts 164°
2026-04-17 10:46 14.26357 100.64335 5491 ft 263 kts 164°
2026-04-17 10:47 14.24598 100.64836 5249 ft 261 kts 165°
2026-04-17 10:47 14.22849 100.65334 5008 ft 259 kts 165°
2026-04-17 10:47 14.21112 100.65830 4770 ft 258 kts 165°
2026-04-17 10:47 14.19379 100.66325 4520 ft 258 kts 165°
2026-04-17 10:48 14.17645 100.66817 4256 ft 257 kts 165°
2026-04-17 10:48 14.15951 100.67300 4023 ft 255 kts 165°
2026-04-17 10:48 14.14245 100.67785 3770 ft 253 kts 165°
2026-04-17 10:48 14.12554 100.68266 3557 ft 250 kts 165°
2026-04-17 10:49 14.10898 100.68738 3316 ft 243 kts 165°
2026-04-17 10:49 14.09294 100.69195 3073 ft 236 kts 165°
2026-04-17 10:49 14.07714 100.69475 2844 ft 226 kts 186°
2026-04-17 10:49 14.06308 100.68915 2721 ft 210 kts 208°
2026-04-17 10:50 14.05086 100.68239 2596 ft 195 kts 205°
2026-04-17 10:50 14.03891 100.67589 2371 ft 192 kts 206°
2026-04-17 10:50 14.02724 100.66936 2136 ft 187 kts 207°
2026-04-17 10:50 14.01608 100.66306 1889 ft 177 kts 207°
2026-04-17 10:51 14.00542 100.65704 1662 ft 172 kts 206°
2026-04-17 10:51 13.99481 100.65191 1394 ft 171 kts 199°
2026-04-17 10:51 13.98350 100.64787 1156 ft 168 kts 198°
2026-04-17 10:51 13.97307 100.64323 1119 ft 158 kts 209°
2026-04-17 10:52 13.96402 100.63714 1062 ft 158 kts 209°
2026-04-17 10:52 13.95464 100.63184 839 ft 152 kts 204°
2026-04-17 10:52 13.94836 100.62854 648 ft 153 kts 204°
2026-04-17 10:52 13.93906 100.62360 387 ft 145 kts 205°
2026-04-17 10:53 13.93008 100.61864 173 ft 152 kts 206°
2026-04-17 10:53 13.92086 100.61348 22 ft 147 kts 206°
2026-04-17 10:53 13.91270 100.60890 16 ft 116 kts 209°
2026-04-17 10:53 13.90675 100.60557 19 ft 81 kts 208°
2026-04-17 10:54 13.90285 100.60339 17 ft 47 kts 208°
2026-04-17 10:54 13.90137 100.60207 18 ft 23 kts 269°
2026-04-17 10:54 13.90208 100.60061 17 ft 23 kts 299°
2026-04-17 10:54 13.90282 100.59921 16 ft 22 kts 298°
2026-04-17 10:55 13.90357 100.59796 16 ft 18 kts 322°
2026-04-17 10:55 13.90448 100.59827 16 ft 14 kts 30°
2026-04-17 10:55 13.90536 100.59874 16 ft 14 kts 28°
2026-04-17 10:55 13.90619 100.59920 16 ft 14 kts 28°
2026-04-17 10:56 13.90719 100.59977 16 ft 20 kts 28°
2026-04-17 10:56 13.90848 100.60052 16 ft 22 kts 30°
2026-04-17 10:56 13.90982 100.60125 17 ft 21 kts 28°
2026-04-17 10:56 13.91111 100.60197 18 ft 21 kts 29°
2026-04-17 10:57 13.91236 100.60267 18 ft 20 kts 28°
2026-04-17 10:57 13.91358 100.60335 16 ft 20 kts 28°
2026-04-17 10:57 13.91477 100.60402 16 ft 20 kts 29°
2026-04-17 10:57 13.91608 100.60461 16 ft 20 kts 352°
2026-04-17 10:58 13.91687 100.60353 18 ft 19 kts 299°
2026-04-17 10:58 13.91751 100.60240 17 ft 15 kts 320°
2026-04-17 10:58 13.91805 100.60262 18 ft 4 kts 29°
2026-04-17 10:58 13.91815 100.60267 18 ft 0 kts 29°